SCOUT A DEB, 3591

Orbit data source: Space-Track

SCOUT A DEB, 3591 is space debris in LEO originally from a launch on Thu, 19 May 1966 UTC launched from the Air Force Western Test Range (AFWTR). Debris objects in space refer to the collection of defunct objects orbiting the Earth. Examples of debris include non-operational satellites, rocket bodies, and fragments generated from explosions, collisions, or faulty payload assembly.

Loading next visibility...
Identifier
3591, 1966-041E
Orbit
LEO
Last TLE update
19 hours ago
Origin
Manufacturer
Unknown
Mission
Spacecraft
Bus & Motor
Unknown
Mass
Unknown
Launch date (UTC)
1966-05-19 (59 years ago)
Launch vehicle
Unknown
Launch site
Air Force Western Test Range (AFWTR)
Object type
Payload
Rocket body
Debris
Shape & HBR
Unknown
Radar Cross Section
Small (<0.1 m²)

Expand to show TLE details & history

TLE from 19 hours ago
0 SCOUT A DEB
1 03591U 66041E   25185.92787538 -.00000002  00000-0 -76205-5 0  9994
2 03591  90.2173  74.2604 0087987 147.3252 213.3416 14.03873588 18666
Epoch: 2025-07-04T22:16Z
TLE epoch observation values (Epoch: 2025-07-04T22:16:08.432Z)
Latitude
-0.00005°
Longitude
177.05202°
Altitude
936.978 km
Speed
7.356 km/s
True Right ascension
04h 57m 02s
True Declination
0° 00' 00"
Sunlit
Object was in daylight at epoch
Visualization orbit readout
Latitude
79.79721°
Longitude
175.87013°
Altitude
866.436 km
Speed
7.44 km/s
Apparent Right ascension
17h 34m 18s
Apparent Declination
39° 56' 22"
Sunlit
Object is in daylight
Visualization observer readout
Local Sidereal Time
05:23:20
Azimuth
357.863° N
Elevation
-10.105°
Doppler factor
1
Orbital elements
Apogee altitude
941.223 km
Perigee altitude
813.545 km
Semi-major axis
7,255.521 km
Eccentricity
0.0088
Inclination
90.2173°
RAAN
74.2604°
Arg. of periapsis
147.3252°
True anomaly
Unknown
Mean anomaly
213.3416°
Eccentric anomaly
Unknown
Mean motion
3.51188 °/min
Orbital period
102.51 mins
BSTAR
-0.0000076205
Loading maneuver chart data...
Loading SW <> Apogee altitude chart data...
Loading historical data...
Loading historical data...
Loading historical data...
Loading historical data...
Loading historical data...
Loading historical data...
Loading historical data...

SCOUT A DEB Visibility forecast

Observer location: undefined°, undefined°

Span
Click to sort rows by Start time (UTC) header in descending order
Start Az.
Max El. time (UTC)
Max El. Az.
Max El.
End time (UTC)
End Az.
8 mins2025-07-06 03:56:57.855Z33.6° NE2025-07-06 04:00:57.855Z89.084° E22.92°2025-07-06 04:04:57.855Z138.155° SSE
7 mins2025-07-06 05:39:57.855Z334.361° NNW2025-07-06 05:42:57.855Z283.929° WNW30.468°2025-07-06 05:46:57.855Z220.709° SW
5 mins2025-07-06 15:29:57.855Z93.984° ESE2025-07-06 15:31:57.855Z70.037° E15.71°2025-07-06 15:34:57.855Z37.394° NE
10 mins2025-07-06 17:08:57.855Z189.383° SSW2025-07-06 17:13:57.855Z295.57° NW41.763°2025-07-06 17:18:57.855Z351.191° N
|